AAY1380 KGSP-KSFB

Flight info

Callsign AAY1380
Flight time N/A
Altitude 33000
Route SOTHH QUIWE Q93 GIPPL Q85 LPERD TTHOR3
Aircraft A319/M-SDE3FGHIRWY/LB1

Departure

Time N/A
Airport Greenville-Spartanburg International Airport (KGSP)

Arrival

Time 2026-04-19 15:53
Airport Orlando Sanford International Airport (KSFB)
Time Latitude Longitude Altitude Speed Heading
2026-04-19 15:29 30.66432 -81.28120 27820 ft 418 kts 187°
2026-04-19 15:29 30.63523 -81.28116 27570 ft 417 kts 187°
2026-04-19 15:30 30.60625 -81.28110 27311 ft 416 kts 186°
2026-04-19 15:30 30.57732 -81.28061 27062 ft 416 kts 185°
2026-04-19 15:30 30.54843 -81.27936 26814 ft 415 kts 184°
2026-04-19 15:30 30.51958 -81.27766 26564 ft 414 kts 183°
2026-04-19 15:31 30.49086 -81.27582 26327 ft 413 kts 183°
2026-04-19 15:31 30.46217 -81.27400 26089 ft 412 kts 183°
2026-04-19 15:31 30.43358 -81.27232 25847 ft 411 kts 183°
2026-04-19 15:31 30.40509 -81.27079 25613 ft 409 kts 183°
2026-04-19 15:32 30.38590 -81.26983 25451 ft 408 kts 183°
2026-04-19 15:32 30.34834 -81.26799 25140 ft 407 kts 183°
2026-04-19 15:32 30.32010 -81.26661 24897 ft 404 kts 183°
2026-04-19 15:32 30.29215 -81.26521 24455 ft 401 kts 182°
2026-04-19 15:33 30.26437 -81.26377 23956 ft 400 kts 182°
2026-04-19 15:33 30.23652 -81.26218 23358 ft 401 kts 181°
2026-04-19 15:33 30.20868 -81.26045 22798 ft 400 kts 181°
2026-04-19 15:33 30.18093 -81.25868 22261 ft 399 kts 181°
2026-04-19 15:34 30.15328 -81.25692 21725 ft 398 kts 181°
2026-04-19 15:34 30.12569 -81.25518 21186 ft 397 kts 181°
2026-04-19 15:34 30.09818 -81.25345 20637 ft 395 kts 181°
2026-04-19 15:34 30.07074 -81.25173 20113 ft 394 kts 181°
2026-04-19 15:35 30.04337 -81.25002 19581 ft 393 kts 181°
2026-04-19 15:35 30.01625 -81.24835 19054 ft 387 kts 181°
2026-04-19 15:35 29.98958 -81.24672 18528 ft 381 kts 181°
2026-04-19 15:35 29.96324 -81.24512 17872 ft 377 kts 181°
2026-04-19 15:36 29.93726 -81.24353 17367 ft 372 kts 181°
2026-04-19 15:36 29.91147 -81.24200 16854 ft 370 kts 181°
2026-04-19 15:36 29.88583 -81.24082 16351 ft 367 kts 181°
2026-04-19 15:36 29.86036 -81.23995 15853 ft 365 kts 182°
2026-04-19 15:37 29.83504 -81.23919 15362 ft 363 kts 182°
2026-04-19 15:37 29.80983 -81.23842 14864 ft 362 kts 182°
2026-04-19 15:37 29.78474 -81.23762 14379 ft 360 kts 182°
2026-04-19 15:37 29.75972 -81.23675 13885 ft 359 kts 181°
2026-04-19 15:38 29.73485 -81.23584 13367 ft 356 kts 181°
2026-04-19 15:38 29.71017 -81.23492 12884 ft 353 kts 181°
2026-04-19 15:38 29.68572 -81.23403 12409 ft 351 kts 181°
2026-04-19 15:38 29.66143 -81.23313 11939 ft 348 kts 181°
2026-04-19 15:39 29.63759 -81.23201 11796 ft 338 kts 180°
2026-04-19 15:39 29.61421 -81.23071 11721 ft 335 kts 180°
2026-04-19 15:39 29.59093 -81.22935 11653 ft 335 kts 180°
2026-04-19 15:39 29.56802 -81.22800 11576 ft 334 kts 180°
2026-04-19 15:40 29.54481 -81.22664 11504 ft 334 kts 180°
2026-04-19 15:40 29.52161 -81.22534 11430 ft 334 kts 180°
2026-04-19 15:40 29.49844 -81.22406 11362 ft 333 kts 180°
2026-04-19 15:40 29.47527 -81.22280 11289 ft 333 kts 180°
2026-04-19 15:41 29.45211 -81.22154 11217 ft 333 kts 180°
2026-04-19 15:41 29.42897 -81.22028 11146 ft 332 kts 180°
2026-04-19 15:41 29.40631 -81.21901 11043 ft 320 kts 180°
2026-04-19 15:41 29.38440 -81.21775 10920 ft 310 kts 180°
2026-04-19 15:42 29.36314 -81.21654 10741 ft 303 kts 180°
2026-04-19 15:42 29.34903 -81.21585 10595 ft 299 kts 180°
2026-04-19 15:42 29.32826 -81.21498 10322 ft 298 kts 181°
2026-04-19 15:42 29.30759 -81.21420 9983 ft 296 kts 180°
2026-04-19 15:43 29.28705 -81.21344 9638 ft 295 kts 180°
2026-04-19 15:43 29.26662 -81.21265 9299 ft 293 kts 181°
2026-04-19 15:43 29.24629 -81.21184 8964 ft 291 kts 180°
2026-04-19 15:44 29.20607 -81.20938 8242 ft 288 kts 179°
2026-04-19 15:44 29.18618 -81.20791 7892 ft 286 kts 179°
2026-04-19 15:44 29.16642 -81.20647 7537 ft 284 kts 179°
2026-04-19 15:44 29.14678 -81.20506 7189 ft 282 kts 179°
2026-04-19 15:45 29.12726 -81.20369 6841 ft 280 kts 179°
2026-04-19 15:45 29.10786 -81.20256 6486 ft 278 kts 181°
2026-04-19 15:45 29.08860 -81.20215 6124 ft 276 kts 182°
2026-04-19 15:45 29.06951 -81.20206 5788 ft 273 kts 182°
2026-04-19 15:46 29.05058 -81.20206 5443 ft 271 kts 182°
2026-04-19 15:46 29.03205 -81.20207 5119 ft 269 kts 182°
2026-04-19 15:46 29.01353 -81.19796 4803 ft 271 kts 158°
2026-04-19 15:46 28.99676 -81.18808 4552 ft 272 kts 153°
2026-04-19 15:47 28.98048 -81.17775 4305 ft 271 kts 153°
2026-04-19 15:47 28.96405 -81.16722 4054 ft 270 kts 153°
2026-04-19 15:47 28.94792 -81.15686 3809 ft 262 kts 153°
2026-04-19 15:47 28.93207 -81.14664 3565 ft 255 kts 152°
2026-04-19 15:48 28.91670 -81.13679 3325 ft 253 kts 153°
2026-04-19 15:48 28.90138 -81.12702 3089 ft 251 kts 153°
2026-04-19 15:48 28.88643 -81.11753 2874 ft 248 kts 153°
2026-04-19 15:48 28.87120 -81.10784 2639 ft 244 kts 153°
2026-04-19 15:49 28.85677 -81.09858 2418 ft 238 kts 153°
2026-04-19 15:49 28.84229 -81.08936 2216 ft 234 kts 152°
2026-04-19 15:49 28.82789 -81.08047 2026 ft 238 kts 158°
2026-04-19 15:49 28.81191 -81.07703 1851 ft 231 kts 186°
2026-04-19 15:50 28.79720 -81.08234 1729 ft 217 kts 215°
2026-04-19 15:50 28.78681 -81.09411 1646 ft 214 kts 241°
2026-04-19 15:50 28.78214 -81.10921 1596 ft 194 kts 265°
2026-04-19 15:50 28.78186 -81.12442 1609 ft 184 kts 271°
2026-04-19 15:51 28.78185 -81.13822 1450 ft 172 kts 271°
2026-04-19 15:51 28.78184 -81.15137 1244 ft 160 kts 272°
2026-04-19 15:51 28.78183 -81.16355 1054 ft 145 kts 271°
2026-04-19 15:51 28.78181 -81.17453 871 ft 133 kts 272°
2026-04-19 15:52 28.78180 -81.18487 674 ft 129 kts 272°
2026-04-19 15:52 28.78180 -81.19498 550 ft 127 kts 273°
2026-04-19 15:52 28.78179 -81.20508 373 ft 128 kts 274°
2026-04-19 15:52 28.78179 -81.21505 224 ft 125 kts 275°
2026-04-19 15:53 28.78177 -81.22504 70 ft 126 kts 273°
2026-04-19 15:53 28.78177 -81.23371 63 ft 87 kts 270°
2026-04-19 15:53 28.78175 -81.23899 66 ft 55 kts 269°
2026-04-19 15:53 28.78176 -81.24291 65 ft 37 kts 270°
2026-04-19 15:54 28.78170 -81.24510 62 ft 15 kts 248°
2026-04-19 15:54 28.78073 -81.24535 58 ft 15 kts 180°
2026-04-19 15:54 28.77971 -81.24535 61 ft 15 kts 180°
2026-04-19 15:54 28.77877 -81.24534 62 ft 12 kts 180°
2026-04-19 15:55 28.77793 -81.24534 59 ft 10 kts 178°
2026-04-19 15:55 28.77763 -81.24480 63 ft 9 kts 91°
2026-04-19 15:55 28.77763 -81.24405 64 ft 10 kts 90°
2026-04-19 15:55 28.77763 -81.24325 64 ft 10 kts 90°
2026-04-19 15:56 28.77763 -81.24240 64 ft 11 kts 90°
2026-04-19 15:56 28.77759 -81.24167 57 ft 7 kts 115°
2026-04-19 15:56 28.77716 -81.24146 64 ft 7 kts 164°
2026-04-19 15:56 28.77688 -81.24137 61 ft 3 kts 164°
2026-04-19 15:57 28.77679 -81.24134 63 ft 0 kts 164°